CZ-3B DEB, 42471

Orbit data source: Space-Track

CZ-3B DEB, 42471 is space debris in HEO originally from a launch on Mon, 19 Dec 2011 UTC launched from the Xichang Space Center, China (XSC). Debris objects in space refer to the collection of defunct objects orbiting the Earth. Examples of debris include non-operational satellites, rocket bodies, and fragments generated from explosions, collisions, or faulty payload assembly.

Loading next visibility...
Identifier
42471, 2011-077AL
Orbit
HEO
Country
Flag of CNCN / PRC
Related business
Manufacturer
CALT
Mission
Spacecraft
Bus & Motor
Unknown
Mass
Unknown
Launch date (UTC)
2011-12-19 (14 years ago)
Launch vehicle
Unknown
Launch site
Xichang Space Center, China (XSC)
Object type
Payload
Rocket body
Debris
Shape & HBR
Unknown shape, 0.2 m
Radar Cross Section
Medium (>0.1 m² and <1 m²)

Expand to show TLE details & history
Last TLE update: 5 days ago

TLE from 5 days ago
0 CZ-3B DEB
1 42471U 11077AL  26122.51185170 -.00000257  00000-0  10556-2 0  9999
2 42471  26.4613 322.3403 7463145 102.8091 342.0969  1.89267673 33828
Epoch: 2026-05-02T12:17Z
TLE epoch observation values (Epoch: 2026-05-02T12:17:03.986Z)
Latitude
-0.00097°
Longitude
-82.39933°
Altitude
8,209.671 km
Speed
6.341 km/s
True Right ascension
21h 29m 11s
True Declination
0° 00' 03"
Sunlit
Object was in daylight at epoch
Visualization orbit readout
Latitude
Unknown
Longitude
Unknown
Altitude
Unknown
Speed
Unknown
Apparent Right ascension
Unknown
Apparent Declination
Unknown
Sunlit
N/A
Visualization observer readout
Local Sidereal Time
17:49:05
Azimuth
Unknown
Elevation
Unknown
Doppler factor
Unknown
Orbital elements
Apogee altitude
41,838.846 km
Perigee altitude
626.3 km
Semi-major axis
27,610.71 km
Eccentricity
0.74631
Inclination
26.4613°
RAAN
322.3403°
Arg. of periapsis
102.8091°
True anomaly
256.93884°
Mean anomaly
342.0969°
Eccentric anomaly
308.74722°
Mean motion
0.47307 °/min
Orbital period
760.98 mins
BSTAR
0.0010556
Loading maneuver chart data...
Computing Atmospheric mass density...
Loading historical data...
Loading historical data...
Loading historical data...
Loading historical data...
Loading historical data...
Loading historical data...
Loading historical data...

Documentation

Showing up to 5 results
|